Location: Unspecified
(49.9820°N, 20.4363°E)
Time: 22:46:57
(UTC+01:00)

ISS - Pass Details

Date: 10 November 2018
Orbit: 402 x 409 km, 51.6° (Epoch: 13 November)

Event Time Altitude Azimuth Distance (km) Brightness Sun altitude
Exits shadow 05:58:38 - 275° (W) 1,518 -1.6 -7.4°
Reaches altitude 10° 05:58:47 10° 273° (W) 1,463 -1.6 -7.3°
Maximum altitude 06:01:35 26° 215° (SW) 836 -2.4 -6.9°
Drops below altitude 10° 06:04:22 10° 156° (SSE) 1,460 -0.3 -6.5°
Sets 06:06:38 0° 143° (SE) 2,318 1.1 -6.1°
